Location: Hurstbourne Priors
(51.2000°N, 1.3667°W)
Time: 20:38:07
(UTC+00:00)

Transit 4A - Pass Details

Date: 20 April 2021
Orbit: 870 x 974 km, 66.8° (Epoch: 09 May)

Event Time Altitude Azimuth Distance (km) Brightness Sun altitude
Rises 00:52:58 0° 234° (SW) 3,619 - -26.4°
Reaches altitude 10° 00:55:37 10° 239° (WSW) 2,663 - -26.3°
Exits shadow 00:59:37 38° 263° (W) 1,400 8.6 -26.1°
Maximum altitude 01:01:40 53° 316° (NW) 1,131 8.4 -26.0°
Drops below altitude 10° 01:07:35 10° 33° (NNE) 2,604 11.2 -25.8°
Sets 01:10:09 0° 39° (NE) 3,533 12.0 -25.7°
